Cook, MN

2:08 AM CST on February 11, 2016 (GMT -0600)
Cook Municipal

Weather History for KCQM - December, 2012

Change the Weather History Date:

Friday, December 14, 2012

  Actual Average Record
Temperature  
Mean Temperature 14 °F -  
Max Temperature 28 °F 22 °F 50 °F (1998)
Min Temperature 0 °F 7 °F -27 °F (2010)
Degree Days  
Heating Degree Days 51    
Moisture  
Dew Point 14 °F    
Average Humidity 91    
Maximum Humidity 100    
Minimum Humidity 85    
Precipitation  
Precipitation 0.00 in - - ()
Sea Level Pressure  
Sea Level Pressure 30.02 in    
Wind  
Wind Speed 2 mph (ESE)    
Max Wind Speed 10 mph    
Max Gust Speed 16 mph    
Visibility 10 miles    
Events      
Averages and records for this station are not official NWS values.
T = Trace of Precipitation, MM = Missing Value Source: NWS Daily Summary

Daily Weather History Graph

Daily Weather History Graph

Search for Another Location

Airport or City:

Trip Planner

Search our weather history database for the weather conditions in past years. The results will help you decide how hot, cold, wet, or windy it might be!

Date:

Astronomy

Dec. 14, 2012 Rise Set
Actual Time 7:52 AM CST 4:18 PM CST
Civil Twilight 7:16 AM CST 4:54 PM CST
Nautical Twilight 6:37 AM CST 5:34 PM CST
Astronomical Twilight 5:59 AM CST 6:11 PM CST
Moon 8:54 AM CST (12/14) 6:16 PM CST (12/14)
Length of Visible Light 9h 38m
Length of Day
8h 25m
Waxing Crescent, 3% of the Moon is Illuminated
Dec 14
Waxing Crescent
Dec 19
First Quarter
Dec 28
Full
Jan 4
Last Quarter
Jan 11
New

Hourly Weather History & Observations

Time (CST) Temp. Windchill Dew Point Humidity Pressure Visibility Wind Dir Wind Speed Gust Speed Precip Events Conditions
12:17 AM 6.8 °F - 5.0 °F 92% 30.10 in 10.0 mi Calm Calm - N/A   Clear
12:37 AM 5.0 °F - 3.2 °F 92% 30.10 in 10.0 mi Calm Calm - N/A   Clear
12:56 AM 5.0 °F - 1.4 °F 85% 30.10 in 10.0 mi Calm Calm - N/A   Clear
1:17 AM 3.2 °F - 1.4 °F 92% 30.11 in 10.0 mi Calm Calm - N/A   Clear
1:37 AM 3.2 °F - 1.4 °F 92% 30.10 in 10.0 mi Calm Calm - N/A   Clear
1:56 AM 1.4 °F - -0.4 °F 92% 30.10 in 10.0 mi Calm Calm - N/A   Clear
2:17 AM 1.4 °F - -0.4 °F 92% 30.11 in 10.0 mi Calm Calm - N/A   Clear
2:36 AM 1.4 °F - -0.4 °F 92% 30.11 in 10.0 mi Calm Calm - N/A   Clear
2:57 AM 1.4 °F - -0.4 °F 92% 30.11 in 10.0 mi Calm Calm - N/A   Clear
3:17 AM 1.4 °F - -2.2 °F 85% 30.11 in 10.0 mi Calm Calm - N/A   Clear
3:36 AM 1.4 °F - -2.2 °F 85% 30.11 in 10.0 mi Calm Calm - N/A   Clear
3:57 AM -0.4 °F - -2.2 °F 92% 30.10 in 10.0 mi Calm Calm - N/A   Clear
4:17 AM -0.4 °F - -2.2 °F 92% 30.10 in 10.0 mi Calm Calm - N/A   Clear
4:36 AM 1.4 °F - -2.2 °F 85% 30.10 in 10.0 mi Calm Calm - N/A   Clear
4:57 AM -0.4 °F - -2.2 °F 92% 30.10 in 10.0 mi Calm Calm - N/A   Clear
5:16 AM -0.4 °F - -2.2 °F 92% 30.09 in 10.0 mi Calm Calm - N/A   Clear
5:36 AM -0.4 °F - -2.2 °F 92% 30.08 in 10.0 mi Calm Calm - N/A   Clear
5:57 AM 1.4 °F - -2.2 °F 85% 30.08 in 10.0 mi Calm Calm - N/A   Clear
6:16 AM -0.4 °F - -4.0 °F 85% 30.08 in 10.0 mi Calm Calm - N/A   Clear
6:37 AM -0.4 °F - -4.0 °F 85% 30.08 in 10.0 mi Calm Calm - N/A   Clear
6:57 AM -0.4 °F - -4.0 °F 85% 30.07 in 10.0 mi Calm Calm - N/A   Clear
7:16 AM -0.4 °F - -2.2 °F 92% 30.08 in 10.0 mi Calm Calm - N/A   Clear
7:37 AM 1.4 °F - -2.2 °F 85% 30.08 in 10.0 mi Calm Calm - N/A   Clear
7:57 AM -0.4 °F - -2.2 °F 92% 30.07 in 10.0 mi Calm Calm - N/A   Clear
8:16 AM 1.4 °F - -0.4 °F 92% 30.08 in 10.0 mi Calm Calm - N/A   Clear
8:37 AM 3.2 °F - -0.4 °F 85% 30.08 in 10.0 mi Calm Calm - N/A   Clear
8:57 AM 6.8 °F - 3.2 °F 85% 30.07 in 10.0 mi Calm Calm - N/A   Clear
9:16 AM 8.6 °F - 6.8 °F 92% 30.07 in 10.0 mi Calm Calm - N/A   Clear
9:37 AM 14.0 °F - 12.2 °F 93% 30.07 in 10.0 mi Calm Calm - N/A   Clear
9:57 AM 17.6 °F - 14.0 °F 86% 30.08 in 10.0 mi Calm Calm - N/A   Clear
10:16 AM 17.6 °F 8.2 °F 15.8 °F 93% 30.09 in 10.0 mi SE 6.9 mph - N/A   Scattered Clouds
10:37 AM 17.6 °F 9.3 °F 17.6 °F 100% 30.09 in 10.0 mi SE 5.8 mph - N/A   Overcast
10:57 AM 19.4 °F 11.5 °F 17.6 °F 93% 30.08 in 10.0 mi SE 5.8 mph - N/A   Overcast
11:16 AM 19.4 °F 12.8 °F 19.4 °F 100% 30.08 in 10.0 mi SE 4.6 mph - N/A   Overcast
11:37 AM 21.2 °F 11.7 °F 19.4 °F 93% 30.08 in 10.0 mi SE 8.1 mph - N/A   Overcast
11:57 AM 23.0 °F 13.9 °F 21.2 °F 93% 30.07 in 10.0 mi SE 8.1 mph - N/A   Overcast
12:16 PM 23.0 °F 14.7 °F 21.2 °F 93% 30.07 in 10.0 mi SE 6.9 mph - N/A   Overcast
12:37 PM 24.8 °F 16.9 °F 23.0 °F 93% 30.06 in 10.0 mi SE 6.9 mph - N/A   Overcast
12:57 PM 24.8 °F 14.6 °F 23.0 °F 93% 30.04 in 10.0 mi SE 10.4 mph - N/A   Overcast
1:16 PM 24.8 °F 17.9 °F 23.0 °F 93% 30.03 in 10.0 mi SE 5.8 mph - N/A   Overcast
1:37 PM 26.6 °F 16.8 °F 24.8 °F 93% 30.02 in 10.0 mi SE 10.4 mph - N/A   Overcast
1:56 PM 26.6 °F 16.8 °F 24.8 °F 93% 30.00 in 10.0 mi SE 10.4 mph - N/A   Overcast
2:16 PM 26.6 °F 21.2 °F 24.8 °F 93% 29.99 in 10.0 mi ESE 4.6 mph - N/A   Overcast
2:37 PM 26.6 °F 18.2 °F 24.8 °F 93% 29.98 in 10.0 mi ESE 8.1 mph - N/A   Mostly Cloudy
2:56 PM 26.6 °F 19.1 °F 24.8 °F 93% 29.98 in 10.0 mi ESE 6.9 mph - N/A   Mostly Cloudy
3:16 PM 26.6 °F 19.1 °F 24.8 °F 93% 29.98 in 10.0 mi SE 6.9 mph - N/A   Overcast
3:37 PM 26.6 °F 19.1 °F 24.8 °F 93% 29.97 in 10.0 mi ESE 6.9 mph - N/A   Overcast
4:16 PM 26.6 °F 16.8 °F 24.8 °F 93% 29.97 in 10.0 mi SE 10.4 mph - N/A   Overcast
4:37 PM 26.6 °F 18.2 °F 24.8 °F 93% 29.97 in 10.0 mi ESE 8.1 mph - N/A   Overcast
4:56 PM 26.6 °F 19.1 °F 24.8 °F 93% 29.96 in 10.0 mi SE 6.9 mph - N/A   Overcast
5:16 PM 26.6 °F 18.2 °F 24.8 °F 93% 29.96 in 10.0 mi SE 8.1 mph 16.1 mph N/A   Overcast
5:37 PM 28.4 °F 20.4 °F 24.8 °F 86% 29.96 in 10.0 mi ESE 8.1 mph - N/A   Overcast
5:56 PM 28.4 °F 19.7 °F 24.8 °F 86% 29.95 in 10.0 mi ESE 9.2 mph - N/A   Overcast
6:17 PM 28.4 °F 19.1 °F 24.8 °F 86% 29.94 in 10.0 mi SE 10.4 mph 16.1 mph N/A   Overcast
6:37 PM 26.6 °F 19.1 °F 24.8 °F 93% 29.93 in 10.0 mi ESE 6.9 mph - N/A   Overcast
6:56 PM 26.6 °F 19.1 °F 24.8 °F 93% 29.93 in 10.0 mi ESE 6.9 mph - N/A   Overcast
7:17 PM 28.4 °F 23.3 °F 24.8 °F 86% 29.93 in 10.0 mi ESE 4.6 mph - N/A   Overcast
7:37 PM 26.6 °F 19.1 °F 24.8 °F 93% 29.92 in 10.0 mi ESE 6.9 mph - N/A   Overcast
7:56 PM 26.6 °F 21.2 °F 24.8 °F 93% 29.92 in 10.0 mi ESE 4.6 mph - N/A   Mostly Cloudy
8:17 PM 26.6 °F 19.1 °F 24.8 °F 93% 29.92 in 10.0 mi SE 6.9 mph - N/A   Mostly Cloudy
8:37 PM 26.6 °F 20.0 °F 24.8 °F 93% 29.91 in 10.0 mi ESE 5.8 mph - N/A   Overcast
8:57 PM 26.6 °F 21.2 °F 24.8 °F 93% 29.90 in 10.0 mi East 4.6 mph - N/A   Mostly Cloudy
9:17 PM 26.6 °F 22.6 °F 24.8 °F 93% 29.91 in 10.0 mi ESE 3.5 mph - N/A   Overcast
9:36 PM 26.6 °F 21.2 °F 24.8 °F 93% 29.90 in 10.0 mi East 4.6 mph - N/A   Overcast
9:57 PM 26.6 °F 22.6 °F 24.8 °F 93% 29.90 in 10.0 mi ESE 3.5 mph - N/A   Overcast
10:16 PM 26.6 °F 21.2 °F 24.8 °F 93% 29.90 in 10.0 mi East 4.6 mph - N/A   Overcast
10:37 PM 26.6 °F 22.6 °F 24.8 °F 93% 29.89 in 10.0 mi East 3.5 mph - N/A   Scattered Clouds
10:57 PM 26.6 °F - 24.8 °F 93% 29.88 in 10.0 mi Calm Calm - N/A   Clear
11:16 PM 26.6 °F 21.2 °F 24.8 °F 93% 29.88 in 10.0 mi East 4.6 mph - N/A   Clear
11:37 PM 26.6 °F 22.6 °F 24.8 °F 93% 29.87 in 10.0 mi ENE 3.5 mph - N/A   Clear
11:57 PM 26.6 °F - 24.8 °F 93% 29.87 in 10.0 mi Calm Calm - N/A   Clear